Time,TemperatureF,DewpointF,PressureIn,WindDirection,WindDirectionDegrees,WindSpeedMPH,WindSpeedGustMPH,Humidity,HourlyPrecipIn,Conditions,Clouds,dailyrainin,SoftwareType,DateUTC
2013-08-17 00:01:00,62.9,54.1,29.76,SE,135,0.0,0.0,73,0.00,,,0.00,WUHU216HW,2013-08-17 05:01:00,
2013-08-17 00:06:00,62.7,53.9,29.76,SE,135,0.0,0.0,73,0.00,,,0.00,WUHU216HW,2013-08-17 05:06:00,
2013-08-17 00:11:00,62.7,54.3,29.76,SE,135,0.0,0.0,74,0.00,,,0.00,WUHU216HW,2013-08-17 05:11:00,
2013-08-17 00:16:00,62.6,54.1,29.76,SE,135,0.0,0.0,74,0.00,,,0.00,WUHU216HW,2013-08-17 05:16:00,
2013-08-17 00:21:00,62.4,53.9,29.76,SE,135,0.0,0.0,74,0.00,,,0.00,WUHU216HW,2013-08-17 05:21:00,
2013-08-17 00:26:00,62.4,53.9,29.76,SE,135,0.0,0.0,74,0.00,,,0.00,WUHU216HW,2013-08-17 05:26:00,
2013-08-17 00:31:00,62.4,53.9,29.76,SE,135,0.0,0.0,74,0.00,,,0.00,WUHU216HW,2013-08-17 05:31:00,
2013-08-17 00:36:00,62.4,53.9,29.76,SE,135,0.0,0.0,74,0.00,,,0.00,WUHU216HW,2013-08-17 05:36:00,
2013-08-17 00:41:00,62.2,53.8,29.76,SE,135,0.0,0.0,74,0.00,,,0.00,WUHU216HW,2013-08-17 05:41:00,
2013-08-17 00:46:00,62.2,53.8,29.76,SE,135,0.0,0.0,74,0.00,,,0.00,WUHU216HW,2013-08-17 05:46:00,
2013-08-17 00:51:00,62.2,53.8,29.77,SE,135,0.0,0.0,74,0.00,,,0.00,WUHU216HW,2013-08-17 05:51:00,
2013-08-17 00:56:00,62.0,53.6,29.76,SE,135,0.0,0.0,74,0.00,,,0.00,WUHU216HW,2013-08-17 05:56:00,
2013-08-17 01:01:00,61.8,53.4,29.77,SE,135,0.0,0.0,74,0.00,,,0.00,WUHU216HW,2013-08-17 06:01:00,
2013-08-17 01:06:00,61.8,53.8,29.77,SE,135,0.0,0.0,75,0.00,,,0.00,WUHU216HW,2013-08-17 06:06:00,
2013-08-17 01:11:00,61.8,53.4,29.76,SE,135,0.0,0.0,74,0.00,,,0.00,WUHU216HW,2013-08-17 06:11:00,
2013-08-17 01:16:00,61.7,53.3,29.77,SE,135,0.0,0.0,74,0.00,,,0.00,WUHU216HW,2013-08-17 06:16:00,
2013-08-17 01:21:00,61.5,53.5,29.76,SE,135,0.0,0.0,75,0.00,,,0.00,WUHU216HW,2013-08-17 06:21:00,
2013-08-17 01:26:00,61.5,53.5,29.76,SE,135,0.0,0.0,75,0.00,,,0.00,WUHU216HW,2013-08-17 06:26:00,
2013-08-17 01:31:00,61.5,53.5,29.76,SE,135,0.0,0.0,75,0.00,,,0.00,WUHU216HW,2013-08-17 06:31:00,
2013-08-17 01:36:00,61.5,53.5,29.76,SE,135,0.0,0.0,75,0.00,,,0.00,WUHU216HW,2013-08-17 06:36:00,
2013-08-17 01:41:00,61.3,53.3,29.76,SE,135,0.0,0.0,75,0.00,,,0.00,WUHU216HW,2013-08-17 06:41:00,
2013-08-17 01:46:00,61.3,53.3,29.76,SE,135,0.0,0.0,75,0.00,,,0.00,WUHU216HW,2013-08-17 06:46:00,
2013-08-17 01:51:00,61.1,53.2,29.77,SE,135,0.0,0.0,75,0.00,,,0.00,WUHU216HW,2013-08-17 06:51:00,
2013-08-17 01:56:00,61.1,53.2,29.76,SE,135,0.0,0.0,75,0.00,,,0.00,WUHU216HW,2013-08-17 06:56:00,
2013-08-17 02:01:00,61.1,53.2,29.76,SE,135,0.0,0.0,75,0.00,,,0.00,WUHU216HW,2013-08-17 07:01:00,
2013-08-17 02:06:00,60.9,53.4,29.76,SE,135,0.0,0.0,76,0.00,,,0.00,WUHU216HW,2013-08-17 07:06:00,
2013-08-17 02:11:00,60.9,53.4,29.76,SE,135,0.0,0.0,76,0.00,,,0.00,WUHU216HW,2013-08-17 07:11:00,
2013-08-17 02:16:00,60.9,53.4,29.77,SE,135,0.0,0.0,76,0.00,,,0.00,WUHU216HW,2013-08-17 07:16:00,
2013-08-17 02:21:00,60.8,53.2,29.76,SE,135,0.0,0.0,76,0.00,,,0.00,WUHU216HW,2013-08-17 07:21:00,
2013-08-17 02:26:00,60.6,53.0,29.76,SE,135,0.0,0.0,76,0.00,,,0.00,WUHU216HW,2013-08-17 07:26:00,
2013-08-17 02:31:00,60.6,53.0,29.76,SE,135,0.0,0.0,76,0.00,,,0.00,WUHU216HW,2013-08-17 07:31:00,
2013-08-17 02:36:00,60.6,53.0,29.76,SE,135,0.0,0.0,76,0.00,,,0.00,WUHU216HW,2013-08-17 07:36:00,
2013-08-17 02:41:00,60.6,53.0,29.76,SE,135,0.0,0.0,76,0.00,,,0.00,WUHU216HW,2013-08-17 07:41:00,
2013-08-17 02:46:00,60.4,52.8,29.76,SE,135,0.0,0.0,76,0.00,,,0.00,WUHU216HW,2013-08-17 07:46:00,
2013-08-17 02:51:00,60.4,52.8,29.76,ESE,113,0.0,0.0,76,0.00,,,0.00,WUHU216HW,2013-08-17 07:51:00,
2013-08-17 02:56:00,60.4,52.8,29.76,ESE,113,0.0,0.0,76,0.00,,,0.00,WUHU216HW,2013-08-17 07:56:00,
2013-08-17 03:01:00,60.2,52.7,29.77,ESE,113,0.0,0.0,76,0.00,,,0.00,WUHU216HW,2013-08-17 08:01:00,
2013-08-17 03:06:00,60.0,52.5,29.77,ESE,113,0.0,0.0,76,0.00,,,0.00,WUHU216HW,2013-08-17 08:06:00,
2013-08-17 03:11:00,60.0,52.8,29.76,ESE,113,0.0,0.0,77,0.00,,,0.00,WUHU216HW,2013-08-17 08:11:00,
2013-08-17 03:16:00,59.9,52.7,29.76,ESE,113,0.0,0.0,77,0.00,,,0.00,WUHU216HW,2013-08-17 08:16:00,
2013-08-17 03:21:00,59.9,52.7,29.77,ESE,113,0.0,0.0,77,0.00,,,0.00,WUHU216HW,2013-08-17 08:21:00,
2013-08-17 03:26:00,59.9,53.0,29.77,ESE,113,0.0,0.0,78,0.00,,,0.00,WUHU216HW,2013-08-17 08:26:00,
2013-08-17 03:31:00,59.7,52.8,29.76,ESE,113,0.0,0.0,78,0.00,,,0.00,WUHU216HW,2013-08-17 08:31:00,
2013-08-17 03:36:00,59.7,52.8,29.76,ESE,113,0.0,0.0,78,0.00,,,0.00,WUHU216HW,2013-08-17 08:36:00,
2013-08-17 03:41:00,59.7,52.8,29.77,ESE,113,0.0,0.0,78,0.00,,,0.00,WUHU216HW,2013-08-17 08:41:00,
2013-08-17 03:46:00,59.5,52.7,29.77,ESE,113,0.0,0.0,78,0.00,,,0.00,WUHU216HW,2013-08-17 08:46:00,
2013-08-17 03:51:00,59.5,52.7,29.76,ESE,113,0.0,0.0,78,0.00,,,0.00,WUHU216HW,2013-08-17 08:51:00,
2013-08-17 03:56:00,59.3,52.5,29.76,ESE,113,0.0,0.0,78,0.00,,,0.00,WUHU216HW,2013-08-17 08:56:00,
2013-08-17 04:01:00,59.1,52.3,29.76,ESE,113,0.0,0.0,78,0.00,,,0.00,WUHU216HW,2013-08-17 09:01:00,
2013-08-17 04:06:00,59.1,51.9,29.77,ESE,113,0.0,0.0,77,0.00,,,0.00,WUHU216HW,2013-08-17 09:06:00,
2013-08-17 04:11:00,58.8,51.9,29.77,ESE,113,0.0,0.0,78,0.00,,,0.00,WUHU216HW,2013-08-17 09:11:00,
2013-08-17 04:16:00,58.8,51.9,29.77,ESE,113,0.0,0.0,78,0.00,,,0.00,WUHU216HW,2013-08-17 09:16:00,
2013-08-17 04:21:00,58.8,51.9,29.77,ESE,113,0.0,0.0,78,0.00,,,0.00,WUHU216HW,2013-08-17 09:21:00,
2013-08-17 04:26:00,58.8,51.9,29.77,ESE,113,0.0,0.0,78,0.00,,,0.00,WUHU216HW,2013-08-17 09:26:00,
2013-08-17 04:31:00,58.8,51.9,29.77,ESE,113,0.0,0.0,78,0.00,,,0.00,WUHU216HW,2013-08-17 09:31:00,
2013-08-17 04:36:00,58.8,51.9,29.77,ESE,113,0.0,0.0,78,0.00,,,0.00,WUHU216HW,2013-08-17 09:36:00,
2013-08-17 04:41:00,58.8,51.9,29.77,ESE,113,0.0,0.0,78,0.00,,,0.00,WUHU216HW,2013-08-17 09:41:00,
2013-08-17 04:46:00,58.8,51.9,29.77,ESE,113,0.0,0.0,78,0.00,,,0.00,WUHU216HW,2013-08-17 09:46:00,
2013-08-17 04:51:00,58.8,51.9,29.77,ESE,113,0.0,0.0,78,0.00,,,0.00,WUHU216HW,2013-08-17 09:51:00,
2013-08-17 04:56:00,58.8,51.9,29.77,ESE,113,0.0,0.0,78,0.00,,,0.00,WUHU216HW,2013-08-17 09:56:00,
2013-08-17 05:01:00,58.8,51.9,29.77,ESE,113,0.0,0.0,78,0.00,,,0.00,WUHU216HW,2013-08-17 10:01:00,
2013-08-17 05:06:00,58.6,51.8,29.77,ESE,113,0.0,0.0,78,0.00,,,0.00,WUHU216HW,2013-08-17 10:06:00,
2013-08-17 05:11:00,58.6,51.8,29.77,ESE,113,0.0,0.0,78,0.00,,,0.00,WUHU216HW,2013-08-17 10:11:00,
2013-08-17 05:16:00,58.6,52.1,29.77,ESE,113,0.0,0.0,79,0.00,,,0.00,WUHU216HW,2013-08-17 10:16:00,
2013-08-17 05:21:00,58.4,51.9,29.77,ESE,113,0.0,0.0,79,0.00,,,0.00,WUHU216HW,2013-08-17 10:21:00,
2013-08-17 05:26:00,58.2,51.8,29.77,ESE,113,0.0,0.0,79,0.00,,,0.00,WUHU216HW,2013-08-17 10:26:00,
2013-08-17 05:31:00,58.2,51.8,29.77,ESE,113,0.0,0.0,79,0.00,,,0.00,WUHU216HW,2013-08-17 10:31:00,
2013-08-17 05:36:00,58.2,51.8,29.76,ESE,113,0.0,0.0,79,0.00,,,0.00,WUHU216HW,2013-08-17 10:36:00,
2013-08-17 05:41:00,58.1,51.6,29.77,ESE,113,0.0,0.0,79,0.00,,,0.00,WUHU216HW,2013-08-17 10:41:00,
2013-08-17 05:46:00,58.1,51.6,29.76,ESE,113,0.0,0.0,79,0.00,,,0.00,WUHU216HW,2013-08-17 10:46:00,
2013-08-17 05:51:00,57.9,51.4,29.77,ESE,113,0.0,0.0,79,0.00,,,0.00,WUHU216HW,2013-08-17 10:51:00,
2013-08-17 05:56:00,57.9,51.4,29.77,ESE,113,0.0,0.0,79,0.00,,,0.00,WUHU216HW,2013-08-17 10:56:00,
2013-08-17 06:01:00,57.9,51.4,29.76,ESE,113,0.0,0.0,79,0.00,,,0.00,WUHU216HW,2013-08-17 11:01:00,
2013-08-17 06:06:00,57.9,51.4,29.76,ESE,113,0.0,0.0,79,0.00,,,0.00,WUHU216HW,2013-08-17 11:06:00,
2013-08-17 06:11:00,57.9,51.4,29.76,ESE,113,0.0,0.0,79,0.00,,,0.00,WUHU216HW,2013-08-17 11:11:00,
2013-08-17 06:16:00,57.7,51.2,29.77,ESE,113,0.0,0.0,79,0.00,,,0.00,WUHU216HW,2013-08-17 11:16:00,
2013-08-17 06:21:00,57.7,51.6,29.77,ESE,113,0.0,0.0,80,0.00,,,0.00,WUHU216HW,2013-08-17 11:21:00,
2013-08-17 06:26:00,57.7,51.6,29.77,ESE,113,0.0,0.0,80,0.00,,,0.00,WUHU216HW,2013-08-17 11:26:00,
2013-08-17 06:31:00,57.7,51.6,29.77,ESE,113,0.0,0.0,80,0.00,,,0.00,WUHU216HW,2013-08-17 11:31:00,
2013-08-17 06:36:00,57.5,51.6,29.77,ESE,113,0.0,0.0,80,0.00,,,0.00,WUHU216HW,2013-08-17 11:36:00,
2013-08-17 06:41:00,57.5,51.4,29.77,ESE,113,0.0,0.0,80,0.00,,,0.00,WUHU216HW,2013-08-17 11:41:00,
2013-08-17 06:46:00,57.5,51.4,29.77,ESE,113,0.0,0.0,80,0.00,,,0.00,WUHU216HW,2013-08-17 11:46:00,
2013-08-17 06:51:00,57.5,51.4,29.77,ESE,113,0.0,0.0,80,0.00,,,0.00,WUHU216HW,2013-08-17 11:51:00,
2013-08-17 06:56:00,57.5,51.4,29.77,ESE,113,0.0,0.0,80,0.00,,,0.00,WUHU216HW,2013-08-17 11:56:00,
2013-08-17 07:01:00,57.5,51.4,29.78,ESE,113,0.0,0.0,80,0.00,,,0.00,WUHU216HW,2013-08-17 12:01:00,
2013-08-17 07:06:00,57.5,51.4,29.78,ESE,113,0.0,0.0,80,0.00,,,0.00,WUHU216HW,2013-08-17 12:06:00,
2013-08-17 07:11:00,57.7,51.9,29.78,ESE,113,0.0,0.0,81,0.00,,,0.00,WUHU216HW,2013-08-17 12:11:00,
2013-08-17 07:16:00,57.7,51.9,29.78,ESE,113,0.0,0.0,81,0.00,,,0.00,WUHU216HW,2013-08-17 12:16:00,
2013-08-17 07:21:00,57.7,51.9,29.78,ESE,113,0.0,0.0,81,0.00,,,0.00,WUHU216HW,2013-08-17 12:21:00,
2013-08-17 07:26:00,57.7,51.9,29.78,ESE,113,0.0,0.0,81,0.00,,,0.00,WUHU216HW,2013-08-17 12:26:00,
2013-08-17 07:31:00,57.9,52.1,29.78,ESE,113,0.0,0.0,81,0.00,,,0.00,WUHU216HW,2013-08-17 12:31:00,
2013-08-17 07:36:00,57.9,52.1,29.78,ESE,113,0.0,0.0,81,0.00,,,0.00,WUHU216HW,2013-08-17 12:36:00,
2013-08-17 07:41:00,58.2,52.4,29.79,ESE,113,0.0,0.0,81,0.00,,,0.00,WUHU216HW,2013-08-17 12:41:00,
2013-08-17 07:46:00,58.4,52.6,29.79,ESE,113,0.0,0.0,81,0.00,,,0.00,WUHU216HW,2013-08-17 12:46:00,
2013-08-17 07:51:00,58.6,52.8,29.79,SE,135,0.0,0.0,81,0.00,,,0.00,WUHU216HW,2013-08-17 12:51:00,
2013-08-17 07:56:00,58.8,53.0,29.78,ESE,113,0.0,0.0,81,0.00,,,0.00,WUHU216HW,2013-08-17 12:56:00,
2013-08-17 08:01:00,58.8,53.0,29.78,SE,135,0.0,0.0,81,0.00,,,0.00,WUHU216HW,2013-08-17 13:01:00,
2013-08-17 08:06:00,58.8,52.7,29.78,SE,135,0.0,0.0,80,0.00,,,0.00,WUHU216HW,2013-08-17 13:06:00,
2013-08-17 08:11:00,59.3,53.5,29.78,SE,135,0.0,0.0,81,0.00,,,0.00,WUHU216HW,2013-08-17 13:11:00,
2013-08-17 08:16:00,59.7,53.6,29.79,ESE,113,0.0,0.0,80,0.00,,,0.00,WUHU216HW,2013-08-17 13:16:00,
2013-08-17 08:21:00,60.0,53.9,29.78,SE,135,0.0,0.0,80,0.00,,,0.00,WUHU216HW,2013-08-17 13:21:00,
2013-08-17 08:26:00,60.2,54.1,29.79,ESE,113,0.0,0.0,80,0.00,,,0.00,WUHU216HW,2013-08-17 13:26:00,
2013-08-17 08:31:00,60.4,54.3,29.79,ESE,113,0.0,0.0,80,0.00,,,0.00,WUHU216HW,2013-08-17 13:31:00,
2013-08-17 08:36:00,60.6,54.8,29.79,ESE,113,0.0,0.0,81,0.00,,,0.00,WUHU216HW,2013-08-17 13:36:00,
2013-08-17 08:41:00,61.1,55.3,29.79,South,180,0.0,0.0,81,0.00,,,0.00,WUHU216HW,2013-08-17 13:41:00,
2013-08-17 08:46:00,61.3,55.4,29.79,East,90,0.0,0.0,81,0.00,,,0.00,WUHU216HW,2013-08-17 13:46:00,
2013-08-17 08:51:00,61.8,55.6,29.79,ESE,113,0.0,0.0,80,0.00,,,0.00,WUHU216HW,2013-08-17 13:51:00,
2013-08-17 08:56:00,62.2,55.9,29.79,SE,135,0.0,0.0,80,0.00,,,0.00,WUHU216HW,2013-08-17 13:56:00,
2013-08-17 09:01:00,62.4,56.1,29.79,SE,135,0.0,0.0,80,0.00,,,0.00,WUHU216HW,2013-08-17 14:01:00,
2013-08-17 09:06:00,62.9,56.6,29.79,SE,135,0.0,0.0,80,0.00,,,0.00,WUHU216HW,2013-08-17 14:06:00,
2013-08-17 09:11:00,63.3,57.0,29.79,SE,135,0.0,0.0,80,0.00,,,0.00,WUHU216HW,2013-08-17 14:11:00,
2013-08-17 09:16:00,63.6,57.0,29.80,SE,135,0.0,0.0,79,0.00,,,0.00,WUHU216HW,2013-08-17 14:16:00,
2013-08-17 09:21:00,64.2,57.0,29.79,SSE,158,0.0,0.0,78,0.00,,,0.00,WUHU216HW,2013-08-17 14:21:00,
2013-08-17 09:26:00,64.4,57.0,29.79,SSE,158,0.0,0.0,77,0.00,,,0.00,WUHU216HW,2013-08-17 14:26:00,
2013-08-17 09:31:00,64.7,57.0,29.79,SE,135,0.0,0.0,76,0.00,,,0.00,WUHU216HW,2013-08-17 14:31:00,
2013-08-17 09:36:00,65.1,57.3,29.79,SE,135,0.0,0.0,76,0.00,,,0.00,WUHU216HW,2013-08-17 14:36:00,
2013-08-17 09:41:00,65.3,57.1,29.80,ENE,68,0.0,0.0,75,0.00,,,0.00,WUHU216HW,2013-08-17 14:41:00,
2013-08-17 09:46:00,65.6,57.4,29.79,ESE,113,0.0,0.0,75,0.00,,,0.00,WUHU216HW,2013-08-17 14:46:00,
2013-08-17 09:51:00,66.0,57.4,29.79,SE,135,0.0,0.0,74,0.00,,,0.00,WUHU216HW,2013-08-17 14:51:00,
2013-08-17 09:56:00,66.3,57.4,29.80,SE,135,0.0,0.0,73,0.00,,,0.00,WUHU216HW,2013-08-17 14:56:00,
2013-08-17 10:01:00,66.7,57.7,29.80,South,180,0.0,0.0,73,0.00,,,0.00,WUHU216HW,2013-08-17 15:01:00,
2013-08-17 10:06:00,67.1,57.7,29.80,ESE,113,0.0,0.0,72,0.00,,,0.00,WUHU216HW,2013-08-17 15:06:00,
2013-08-17 10:11:00,67.2,57.9,29.80,East,90,0.2,0.2,72,0.00,,,0.00,WUHU216HW,2013-08-17 15:11:00,
2013-08-17 10:16:00,67.6,58.3,29.80,SE,135,0.0,0.2,72,0.00,,,0.00,WUHU216HW,2013-08-17 15:16:00,
2013-08-17 10:21:00,68.1,58.4,29.80,SE,135,0.0,0.2,72,0.00,,,0.00,WUHU216HW,2013-08-17 15:21:00,
2013-08-17 10:26:00,68.3,58.6,29.80,SE,135,0.0,1.3,71,0.00,,,0.00,WUHU216HW,2013-08-17 15:26:00,
2013-08-17 10:31:00,68.5,58.4,29.80,SSE,158,1.1,1.3,70,0.00,,,0.00,WUHU216HW,2013-08-17 15:31:00,
2013-08-17 10:36:00,69.0,58.7,29.80,SE,135,0.0,1.1,70,0.00,,,0.00,WUHU216HW,2013-08-17 15:36:00,
2013-08-17 10:41:00,69.6,58.9,29.80,SE,135,0.0,0.0,69,0.00,,,0.00,WUHU216HW,2013-08-17 15:41:00,
2013-08-17 10:46:00,69.6,58.5,29.80,NE,45,0.0,0.0,68,0.00,,,0.00,WUHU216HW,2013-08-17 15:46:00,
2013-08-17 10:51:00,70.3,58.8,29.80,SSW,203,0.0,2.6,67,0.00,,,0.00,WUHU216HW,2013-08-17 15:51:00,
2013-08-17 10:56:00,70.5,58.5,29.80,NE,45,0.0,2.6,66,0.00,,,0.00,WUHU216HW,2013-08-17 15:56:00,
2013-08-17 11:01:00,70.8,58.0,29.80,SSE,158,5.8,5.8,64,0.00,,,0.00,WUHU216HW,2013-08-17 16:01:00,
2013-08-17 11:06:00,71.2,58.4,29.80,NE,45,0.0,5.8,64,0.00,,,0.00,WUHU216HW,2013-08-17 16:06:00,
2013-08-17 11:11:00,71.7,58.4,29.80,SSE,158,7.8,7.8,63,0.00,,,0.00,WUHU216HW,2013-08-17 16:11:00,
2013-08-17 11:15:00,71.7,58.0,29.80,SSE,158,0.0,7.8,62,0.00,,,0.00,WUHU216HW,2013-08-17 16:15:00,
2013-08-17 11:20:00,72.1,58.3,29.80,SE,135,6.2,7.8,62,0.00,,,0.00,WUHU216HW,2013-08-17 16:20:00,
2013-08-17 11:25:00,72.5,58.7,29.79,ESE,113,0.0,6.2,62,0.00,,,0.00,WUHU216HW,2013-08-17 16:25:00,
2013-08-17 11:30:00,72.6,58.4,29.79,ESE,113,0.0,6.2,61,0.00,,,0.00,WUHU216HW,2013-08-17 16:30:00,
2013-08-17 11:35:00,73.2,58.9,29.79,SE,135,0.0,6.4,61,0.00,,,0.00,WUHU216HW,2013-08-17 16:35:00,
2013-08-17 11:40:00,73.4,58.6,29.79,SSE,158,0.0,6.4,60,0.00,,,0.00,WUHU216HW,2013-08-17 16:40:00,
2013-08-17 11:45:00,73.7,59.0,29.79,SSE,158,0.0,0.0,60,0.00,,,0.00,WUHU216HW,2013-08-17 16:45:00,
2013-08-17 11:50:00,73.9,59.1,29.79,ESE,113,0.0,0.0,60,0.00,,,0.00,WUHU216HW,2013-08-17 16:50:00,
2013-08-17 11:55:00,74.3,59.0,29.79,East,90,0.0,2.6,59,0.00,,,0.00,WUHU216HW,2013-08-17 16:55:00,
2013-08-17 12:00:00,74.4,58.7,29.79,SSW,203,4.6,4.6,58,0.00,,,0.00,WUHU216HW,2013-08-17 17:00:00,
2013-08-17 12:05:00,74.6,58.8,29.79,SSE,158,5.1,5.1,58,0.00,,,0.00,WUHU216HW,2013-08-17 17:05:00,
2013-08-17 12:10:00,74.8,59.0,29.79,SSE,158,6.7,6.7,58,0.00,,,0.00,WUHU216HW,2013-08-17 17:10:00,
2013-08-17 12:15:00,75.0,59.2,29.79,SE,135,3.8,6.7,58,0.00,,,0.00,WUHU216HW,2013-08-17 17:15:00,
2013-08-17 12:20:00,75.5,59.2,29.79,South,180,1.7,3.8,57,0.00,,,0.00,WUHU216HW,2013-08-17 17:20:00,
2013-08-17 12:25:00,75.7,59.4,29.79,SE,135,0.0,3.5,57,0.00,,,0.00,WUHU216HW,2013-08-17 17:25:00,
2013-08-17 12:30:00,75.9,59.5,29.78,NE,45,0.0,6.0,57,0.00,,,0.00,WUHU216HW,2013-08-17 17:30:00,
2013-08-17 12:35:00,76.2,59.9,29.78,SE,135,0.0,6.0,57,0.00,,,0.00,WUHU216HW,2013-08-17 17:35:00,
2013-08-17 12:40:00,76.6,60.2,29.78,NE,45,0.0,2.6,57,0.00,,,0.00,WUHU216HW,2013-08-17 17:40:00,
2013-08-17 12:45:00,76.8,60.3,29.78,SE,135,0.0,2.6,57,0.00,,,0.00,WUHU216HW,2013-08-17 17:45:00,
2013-08-17 12:50:00,76.8,59.8,29.78,SE,135,0.0,0.0,56,0.00,,,0.00,WUHU216HW,2013-08-17 17:50:00,
2013-08-17 21:03:00,70.1,56.1,29.71,SE,135,0.0,0.0,61,0.00,,,0.00,WUHU216HW,2013-08-18 02:03:00,
2013-08-17 21:08:00,69.9,55.9,29.72,SE,135,0.0,0.0,61,0.00,,,0.00,WUHU216HW,2013-08-18 02:08:00,
2013-08-17 21:13:00,69.6,56.0,29.72,SE,135,0.0,0.0,62,0.00,,,0.00,WUHU216HW,2013-08-18 02:13:00,
2013-08-17 21:18:00,69.4,55.8,29.72,SE,135,0.0,0.0,62,0.00,,,0.00,WUHU216HW,2013-08-18 02:18:00,
2013-08-17 21:23:00,69.0,55.5,29.72,SE,135,0.0,0.0,62,0.00,,,0.00,WUHU216HW,2013-08-18 02:23:00,
2013-08-17 21:28:00,68.7,55.5,29.72,SE,135,0.0,0.0,63,0.00,,,0.00,WUHU216HW,2013-08-18 02:28:00,
2013-08-17 21:33:00,68.5,55.4,29.72,SE,135,0.0,0.0,63,0.00,,,0.00,WUHU216HW,2013-08-18 02:33:00,
2013-08-17 21:38:00,68.3,55.2,29.72,SE,135,0.0,0.0,63,0.00,,,0.00,WUHU216HW,2013-08-18 02:38:00,
2013-08-17 21:43:00,68.1,55.4,29.73,SE,135,0.0,0.0,64,0.00,,,0.00,WUHU216HW,2013-08-18 02:43:00,
2013-08-17 21:48:00,67.8,55.1,29.73,SE,135,0.0,0.0,64,0.00,,,0.00,WUHU216HW,2013-08-18 02:48:00,
2013-08-17 21:53:00,67.8,55.1,29.73,SE,135,0.0,0.0,64,0.00,,,0.00,WUHU216HW,2013-08-18 02:53:00,
2013-08-17 21:58:00,67.6,54.9,29.73,SE,135,0.0,0.0,64,0.00,,,0.00,WUHU216HW,2013-08-18 02:58:00,
2013-08-17 22:03:00,67.6,55.4,29.73,SE,135,0.0,0.0,65,0.00,,,0.00,WUHU216HW,2013-08-18 03:03:00,
2013-08-17 22:08:00,67.2,55.0,29.73,SE,135,0.0,0.0,65,0.00,,,0.00,WUHU216HW,2013-08-18 03:08:00,
2013-08-17 22:13:00,67.1,55.3,29.73,SE,135,0.0,0.0,66,0.00,,,0.00,WUHU216HW,2013-08-18 03:13:00,
2013-08-17 22:18:00,66.9,55.1,29.73,SE,135,0.0,0.0,66,0.00,,,0.00,WUHU216HW,2013-08-18 03:18:00,
2013-08-17 22:23:00,66.7,54.9,29.73,SE,135,0.0,0.0,66,0.00,,,0.00,WUHU216HW,2013-08-18 03:23:00,
2013-08-17 22:28:00,66.7,55.4,29.73,SE,135,0.0,0.0,67,0.00,,,0.00,WUHU216HW,2013-08-18 03:28:00,
2013-08-17 22:33:00,66.5,55.2,29.73,SE,135,0.0,0.0,67,0.00,,,0.00,WUHU216HW,2013-08-18 03:33:00,
2013-08-17 22:38:00,66.3,55.0,29.73,SE,135,0.0,0.0,67,0.00,,,0.00,WUHU216HW,2013-08-18 03:38:00,
2013-08-17 22:43:00,66.0,54.6,29.73,SE,135,0.0,0.0,67,0.00,,,0.00,WUHU216HW,2013-08-18 03:43:00,
2013-08-17 22:48:00,66.0,54.6,29.73,SE,135,0.0,0.0,67,0.00,,,0.00,WUHU216HW,2013-08-18 03:48:00,
2013-08-17 22:53:00,65.8,54.5,29.73,SE,135,0.0,0.0,67,0.00,,,0.00,WUHU216HW,2013-08-18 03:53:00,
2013-08-17 22:58:00,65.8,54.9,29.73,SE,135,0.0,0.0,68,0.00,,,0.00,WUHU216HW,2013-08-18 03:58:00,
2013-08-17 23:01:00,65.4,54.6,29.73,SE,135,0.0,0.0,68,0.00,,,0.00,WUHU216HW,2013-08-18 04:01:00,
2013-08-17 23:06:00,65.4,54.6,29.73,SE,135,0.0,0.0,68,0.00,,,0.00,WUHU216HW,2013-08-18 04:06:00,
2013-08-17 23:11:00,65.1,54.7,29.73,SE,135,0.0,0.0,69,0.00,,,0.00,WUHU216HW,2013-08-18 04:11:00,
2013-08-17 23:16:00,65.1,54.7,29.73,SE,135,0.0,0.0,69,0.00,,,0.00,WUHU216HW,2013-08-18 04:16:00,
2013-08-17 23:21:00,65.1,54.7,29.73,SE,135,0.0,0.0,69,0.00,,,0.00,WUHU216HW,2013-08-18 04:21:00,
2013-08-17 23:26:00,64.9,54.5,29.73,SE,135,0.0,0.0,69,0.00,,,0.00,WUHU216HW,2013-08-18 04:26:00,
2013-08-17 23:31:00,64.9,54.5,29.73,SE,135,0.0,0.0,69,0.00,,,0.00,WUHU216HW,2013-08-18 04:31:00,
2013-08-17 23:36:00,64.7,54.3,29.73,SE,135,0.0,0.0,69,0.00,,,0.00,WUHU216HW,2013-08-18 04:36:00,
2013-08-17 23:41:00,64.7,54.3,29.73,SE,135,0.0,0.0,69,0.00,,,0.00,WUHU216HW,2013-08-18 04:41:00,
2013-08-17 23:46:00,64.5,54.6,29.73,SE,135,0.0,0.0,70,0.00,,,0.00,WUHU216HW,2013-08-18 04:46:00,
2013-08-17 23:51:00,64.4,54.5,29.73,SE,135,0.0,0.0,70,0.00,,,0.00,WUHU216HW,2013-08-18 04:51:00,
2013-08-17 23:56:00,64.2,54.3,29.73,SE,135,0.0,0.0,70,0.00,,,0.00,WUHU216HW,2013-08-18 04:56:00,